Preview of NWS' New Version of Forecast
This preview is not operational and should not be used for support decisions.

Regional Weather Roundup (RWR)

Issued by National Weather Service (NWS)

                            
000
ASUS42 KTBW 180315
RWRFL 
FLORIDA REGIONAL WEATHER ROUNDUP
NATIONAL WEATHER SERVICE TAMPA BAY RUSKIN FL
1100 PM EDT WED APR 17 2019

NOTE: "FAIR" INDICATES FEW OR NO CLOUDS BELOW 12,000 FEET WITH NO
SIGNIFICANT WEATHER AND/OR OBSTRUCTIONS TO VISIBILITY.

FLZ001>010-012>015-112-114-115-180400-
PANHANDLE FLORIDA
  
CITY           SKY/WX    TMP DP  RH WIND       PRES   REMARKS
PENSACOLA      MOCLDY    70  70 100 SE15      30.02S                  
PENSACOLA NAS  CLOUDY    70  69  97 SE12      30.01R                  
MILTON NAS     MOCLDY    67  66  97 S6        30.03R                  
CRESTVIEW      MOCLDY    67  65  93 CALM      30.05S                  
DUKE FIELD     FAIR      68  67  99 CALM      30.03S                  
VALPARAISO     FAIR      69  67  94 SE8       30.03R                  
MARY ESTHER    MOCLDY    69  66  89 SE9       30.02R                  
PANAMA CITY    FAIR      64  61  90 CALM      30.03S                  
TYNDALL AFB    FAIR      64  61  91 CALM      30.04R                  
APALACHICOLA   FAIR      62  59  90 CALM      30.04S                  

STATION/POSITION SKY/WX   TEMP    WIND        PRES    WAVE   SWELL
                          AIR SEA DIR/SP/G            HT/PER HT/PER
                          (F)     (DEG/KT/KT) (MB)    (FT/S) (FT/S)
30.1N   87.6W                                   N/A     2/ 4
29.2N   88.2W                     110/ 12/ 16 1015.9
PANAMA CITY BEAC           70 72  130/  7/  8 1017.5R
TOWER C          NOT AVBL

$$
FLZ011-016>038-118-127-128-134-139-239-180400-
NORTH FLORIDA
  
CITY           SKY/WX    TMP DP  RH WIND       PRES   REMARKS
MARIANNA       FAIR      69  62  78 W3        30.05R                  
TALLAHASSEE    FAIR      62  58  86 CALM      30.05R                  
PERRY          MOCLDY    65  62  89 CALM      30.07S                  
LIVE OAK       CLOUDY    66  64  94 CALM      30.07S                  
CROSS CITY     FAIR      65  62  87 NE3       30.07R                  
LAKE CITY      FAIR      68  61  77 E5        30.08S                  
GAINESVILLE    FAIR      70  63  78 E5        30.11R                  
PALATKA        CLOUDY   N/A N/A N/A SE3       30.09S                  
MAYPORT NAS    MOCLDY    71  66  84 E8        30.10S                  
JACKSONVILLE   MOCLDY    67  64  90 E7        30.09S                  
JAX NAS        MOCLDY    72  64  76 E7        30.10S                  
JAX CECIL      CLEAR     70  64  83 E5        30.09S                  
FERNANDINA BEA FAIR      69  66  88 E7        30.10F                  
ST AUGUSTINE   FAIR      71  67  87 S3        30.11R                  
PALM COAST     FAIR      66  62  87 SE3       30.10R                  

STATION/POSITION SKY/WX   TEMP    WIND        PRES    WAVE   SWELL
                          AIR SEA DIR/SP/G            HT/PER HT/PER
                          (F)     (DEG/KT/KT) (MB)    (FT/S) (FT/S)
SHELL POINT      NOT AVBL
KEATON BEACH               67      30/  2/  2 1018.0R
CEDAR KEY                  71      20/  5/  7 1018.0R
FERNANDINA                 71 68  110/  2/  4 1020.0F
30.7N   81.3W                 69                N/A     2/10
MAYPORT                    71 68  100/  5/  7 1019.3F
31.4N   80.9W              68 67  110/  6/  6 1019.9S   2/ 8   2/ 8
ST AUGUSTINE               72 71  140/  8/  8 1019.2R

$$
FLZ040-043>046-052-053-057-058-063-144-180400-
INTERIOR CENTRAL FLORIDA
  
CITY           SKY/WX    TMP DP  RH WIND       PRES   REMARKS
OCALA          FAIR      72  61  68 E5        30.09R                  
LEESBURG       FAIR      72  60  66 SE10      30.09R                  
SANFORD        FAIR      69  62  78 E3        30.09R                  
ORLANDO EXEC   FAIR      70  62  76 E7        30.09R                  
ORLANDO INTL   MOCLDY    70  61  73 E7        30.09R                  
KISSIMMEE      FAIR      71  63  75 E7        30.10R                  
WINTER HAVEN   FAIR      72  62  71 E8        30.09R                  
LAKELAND       FAIR      70  61  73 E6        30.08R                  
BARTOW         FAIR      70  61  73 E6        30.07R                  
SEBRING        FAIR      67  61  81 E8        30.07S                  
OKEECHOBEE     FAIR      64  59  82 E3        30.06S                  

$$
FLZ041-047-054-059-064-141-147-180400-
EAST CENTRAL FLORIDA
  
CITY           SKY/WX    TMP DP  RH WIND       PRES   REMARKS
DAYTONA BEACH  MOCLDY    69  66  90 CALM      30.10R                  
DELAND         FAIR      66  61  82 CALM      30.09S                  
JFK SPACE CTR  FAIR      71  62  72 SE3       30.08R                  
CAPE CANAVERAL FAIR      72  58  60 SE10      30.08R                  
PATRICK AFB    FAIR      75  62  64 E14       30.08R                  
MELBOURNE      FAIR      75  62  64 SE10      30.08R                  
VERO BEACH     FAIR      74  61  63 SE13      30.07S                  
FT PIERCE      FAIR      74  61  63 E12       30.07S                  
STUART         FAIR      73  61  64 E12       30.08S                  

STATION/POSITION SKY/WX   TEMP    WIND        PRES    WAVE   SWELL
                          AIR SEA DIR/SP/G            HT/PER HT/PER
                          (F)     (DEG/KT/KT) (MB)    (FT/S) (FT/S)
28.5N   80.2W              76     130/ 14/ 17 1019.2R   4/ 8   3/ 8
28.9N   78.5W              74 77  100/ 16/ 19 1019.7R   4/ 8   3/ 8
TRIDENT PIER               74 78  120/  8/ 12 1020.0R
28.4N   80.5W                 77                N/A     3/ 4
27.5N   80.2W                 76                N/A     3/ 8

$$
FLZ050-056-061-142-242-148-248-149-249-151-251-155-255-
160-260-180400-
WEST CENTRAL FLORIDA
  
CITY           SKY/WX    TMP DP  RH WIND       PRES   REMARKS
CRYSTAL RIVER  FAIR      70  63  78 CALM      30.07R                  
INVERNESS      FAIR      70  63  78 SE3       30.08R                  
BROOKSVILLE    FAIR      71  58  63 E7        30.07R                  
CLEARWATER AIR FAIR      73  59  60 SE7       30.05S                  
ST PETE CLEARW FAIR      74  60  61 E17       30.05R                  
TAMPA INTL     FAIR      76  59  55 E10G18    30.06R                  
TAMPA EXEC     FAIR      68  59  73 E3        30.07R                  
PLANT CITY     FAIR      72  61  68 E6        30.09R                  
MACDILL AFB    FAIR      74  60  61 SE10      30.05R                  
PETER O KNIGHT CLOUDY    73  63  68 E12       30.06S                  
ST PETERSBURG  FAIR      76  62  62 E21       30.04R                  
SARASOTA       FAIR      72  61  68 E7        30.03R                  
VENICE         FAIR      73  66  78 E3        30.05R                  

STATION/POSITION SKY/WX   TEMP    WIND        PRES    WAVE   SWELL
                          AIR SEA DIR/SP/G            HT/PER HT/PER
                          (F)     (DEG/KT/KT) (MB)    (FT/S) (FT/S)
27.3N   84.2W                 75                N/A     2/ 6
CLEARWATER BEACH                   70/  5/  8   N/A
MIDDLE TAMPA BAY           74     110/ 11/ 13 1017.6R
VENICE                     73 78  100/  4/  5 1017.2R

$$
FLZ066-069-070-075>078-162-262-165-265-180400-
SOUTHWEST FLORIDA AND KEYS
  
CITY           SKY/WX    TMP DP  RH WIND       PRES   REMARKS
PUNTA GORDA    FAIR      71  61  70 E6        30.06R                  
FT MYERS       FAIR      72  61  68 E9        30.04R                  
SOUTHWEST INTL FAIR      71  60  68 E7        30.05R                  
NAPLES         FAIR      74  64  71 E8        30.04R                  
MARCO ISLAND   FAIR      74  63  68 E9        30.06R                  
IMMOKALEE      CLOUDY    68  61  77 NE6       30.03S                  
MARATHON       FAIR      80  68  66 E9        30.03S                  
KEY WEST NAS   FAIR      77  66  68 E14       30.03S                  
KEY WEST INTL  FAIR      77  66  68 E12       30.04R                  

STATION/POSITION SKY/WX   TEMP    WIND        PRES    WAVE   SWELL
                          AIR SEA DIR/SP/G            HT/PER HT/PER
                          (F)     (DEG/KT/KT) (MB)    (FT/S) (FT/S)
NAPLES                     76 81  100/  6/ 11 1017.2R
DRY TORTUGAS               77     120/ 15/ 16 1016.7R
SAND KEY                   76                 1016.9R
SOMBRERO KEY               77                 1016.3R

$$
FLZ067-068-071>074-168-172>174-180400-
SOUTHEAST FLORIDA 
  
CITY           SKY/WX    TMP DP  RH WIND       PRES   REMARKS
W PALM BEACH   MOCLDY    76  63  64 E13       30.07S                  
BOCA RATON     PTCLDY    75  61  60 SE8       30.07R                  
FT LAUDER-EXEC FAIR      76  61  59 E8        30.06R                  
FT LAUDERDALE  FAIR      76  62  62 E10       30.05S                  
POMPANO BEACH  FAIR      76  61  59 E7        30.06S                  
PEMBROKE PINES FAIR      74  62  66 E6        30.07S                  
OPA LOCKA      FAIR      74  63  68 E5        30.07R                  
MIAMI          FAIR      76  63  64 E8        30.06S                  
WEST KENDALL   MOCLDY    75  63  66 NE5       30.06R                  
HOMESTEAD      MOCLDY    75  66  73 NE7       30.05R                  

STATION/POSITION SKY/WX   TEMP    WIND        PRES    WAVE   SWELL
                          AIR SEA DIR/SP/G            HT/PER HT/PER
                          (F)     (DEG/KT/KT) (MB)    (FT/S) (FT/S)
PORT EVERGLADES            77      90/  5/  9 1017.9R
VIRGINIA KEY               78 81   70/  9/ 11 1017.3R
LAKE WORTH                 76 79  130/ 10/ 12 1019.2S
SETTLEMENT POINT           75     100/ 10/ 13 1018.8R

$$